BSAT-4B

Last updated on Thu Aug 13 2026 00:03:02 GMT+0000 (Coordinated Universal Time)

1 46112U 20056A 26224.58814896 -.00000368 00000+0 00000+0 0 9998 2 46112 0.0327 183.9758 0003997 317.3244 141.2893 1.00272377 21955
UTC large
Height (km)
Speed (km/s)
/
Latitude / Longitude
Inclination (degrees)
Orbital Period (minutes)
Azimuth
Elevation
Range (km)
Doppler Factor

Next 0 passes for location: London (51.5072 / 0.1276)

No passes found over London.
BSAT-4B